Estación de San Nicolás
Ultimos registro cada 15 minutos 36
| N° | Estación | Fecha / Hora | Temperatura | Humedad | Lluvia | Velocidad | Dirección | Radiación | Presion |
| 36 | San Nicolás | 06-09-2026 09:00 | 5,6 | 69 | 0 | 2,7 | 250 | 360 | 1013,1 |
| 35 | San Nicolás | 06-09-2026 08:45 | 5 | 69 | 0 | 1,3 | 267 | 311 | 1012,6 |
| 34 | San Nicolás | 06-09-2026 08:30 | 4,3 | 71 | 0 | 1,8 | 263 | 257 | 1012,8 |
| 33 | San Nicolás | 06-09-2026 08:15 | 3,6 | 74 | 0 | 0,9 | 251 | 200 | 1012,7 |
| 32 | San Nicolás | 06-09-2026 08:00 | 3 | 76 | 0 | 0,9 | 265 | 139 | 1012,3 |
| 31 | San Nicolás | 06-09-2026 07:45 | 2,2 | 79 | 0 | 0,9 | 250 | 88 | 1012,3 |
| 30 | San Nicolás | 06-09-2026 07:30 | 1,7 | 80 | 0 | 0,9 | 250 | 46 | 1011,9 |
| 29 | San Nicolás | 06-09-2026 07:15 | 1,3 | 81 | 0 | 0,9 | 251 | 14 | 1011,8 |
| 28 | San Nicolás | 06-09-2026 07:00 | 1,3 | 82 | 0 | 0 | 250 | 0 | 1011,9 |
| 27 | San Nicolás | 06-09-2026 06:45 | 1,1 | 83 | 0 | 0 | 250 | 0 | 1011,7 |
| 26 | San Nicolás | 06-09-2026 06:30 | 1,2 | 83 | 0 | 0 | 250 | 0 | 1011,8 |
| 25 | San Nicolás | 06-09-2026 06:15 | 1,2 | 83 | 0 | 0 | 250 | 0 | 1011,8 |
| 24 | San Nicolás | 06-09-2026 06:00 | 1,3 | 82 | 0 | 0 | 250 | 0 | 1011,9 |
| 23 | San Nicolás | 06-09-2026 05:45 | 1,5 | 83 | 0 | 0 | 250 | 0 | 1011,9 |
| 22 | San Nicolás | 06-09-2026 05:30 | 1,2 | 84 | 0 | 0 | 250 | 0 | 1012 |
| 21 | San Nicolás | 06-09-2026 05:15 | 1,2 | 84 | 0 | 0 | 250 | 0 | 1012,2 |
| 20 | San Nicolás | 06-09-2026 05:00 | 1,4 | 84 | 0 | 0 | 250 | 0 | 1012,2 |
| 19 | San Nicolás | 06-09-2026 04:45 | 1,7 | 83 | 0 | 0 | 250 | 0 | 1012,4 |
| 18 | San Nicolás | 06-09-2026 04:30 | 1,9 | 84 | 0 | 0 | 250 | 0 | 1012,6 |
| 17 | San Nicolás | 06-09-2026 04:15 | 2,1 | 82 | 0 | 0 | 250 | 0 | 1012,5 |
| 16 | San Nicolás | 06-09-2026 03:45 | 2,2 | 81 | 0 | 0 | 250 | 0 | 1012,6 |
| 15 | San Nicolás | 06-09-2026 03:30 | 2,3 | 79 | 0 | 0 | 250 | 0 | 1012,7 |
| 14 | San Nicolás | 06-09-2026 03:15 | 2,7 | 79 | 0 | 0 | 250 | 0 | 1012,9 |
| 13 | San Nicolás | 06-09-2026 03:00 | 2,8 | 79 | 0 | 0 | 250 | 0 | 1013,2 |
| 12 | San Nicolás | 06-09-2026 02:45 | 3 | 78 | 0 | 0 | 250 | 0 | 1013,4 |
| 11 | San Nicolás | 06-09-2026 02:30 | 3,1 | 78 | 0 | 0 | 250 | 0 | 1013,7 |
| 10 | San Nicolás | 06-09-2026 02:15 | 3,2 | 79 | 0 | 0 | 250 | 0 | 1014 |
| 9 | San Nicolás | 06-09-2026 02:00 | 3,2 | 79 | 0 | 0 | 250 | 0 | 1013,9 |
| 8 | San Nicolás | 06-09-2026 01:45 | 3,4 | 77 | 0 | 0 | 250 | 0 | 1014,2 |
| 7 | San Nicolás | 06-09-2026 01:30 | 3,6 | 76 | 0 | 0 | 250 | 0 | 1014,4 |
| 6 | San Nicolás | 06-09-2026 01:15 | 3,9 | 75 | 0 | 0 | 251 | 0 | 1014,5 |
| 5 | San Nicolás | 06-09-2026 01:00 | 4,3 | 73 | 0 | 0 | 251 | 0 | 1014,6 |
| 4 | San Nicolás | 06-09-2026 00:45 | 4,8 | 72 | 0 | 0 | 250 | 0 | 1014,6 |
| 3 | San Nicolás | 06-09-2026 00:30 | 5,2 | 71 | 0 | 0 | 250 | 0 | 1014,7 |
| 2 | San Nicolás | 06-09-2026 00:15 | 5,3 | 72 | 0 | 0 | 250 | 0 | 1015,1 |
| 1 | San Nicolás | 06-09-2026 00:00 | 5,6 | 71 | 0 | 0 | 250 | 0 | 1015,3 |